STARLINK-32093, 59701

Orbit data source: Space-Track

STARLINK-32093, 59701 is a payload satellite owned by SpaceX/Seattle (US) in LEO that was launched on Wed, 08 May 2024 UTC via an FALCON 9 launch vehicle from the Air Force Eastern Test Range (AFETR). Payload-class satellites include a variety of spacecraft equipped with specific instruments for various scientific and technological missions. These include communications satellites like Starlink; space stations such as the ISS; scientific satellites like the Hubble; Earth observation satellites from companies like Planet Labs, Umbra, and HawkEye 360; GPS; miniature CubeSats for education and research; and military/defense satellites.

Loading next visibility...
Identifier
59701, 2024-086V
Orbit
LEO
Country
Flag of USUS
Related business
Manufacturer
SpaceX/Seattle
Mission
Operational Commercial Communications
Bus & Motor
STARLINK V2M, Unknown motor
Mass
730 kg wet, ~700 kg dry
Launch date (UTC)
2024-05-08 (2 years ago)
Launch vehicle
FALCON 9
Launch site
Air Force Eastern Test Range (AFETR)
Object type
Payload
Rocket body
Debris
Shape & HBR
Box + 2 Pan, 17.7 m
Radar Cross Section
33.884 m², Large (>1 m²)

Expand to show TLE details & history
Last TLE update: 2 days ago

TLE from 2 days ago
0 STARLINK-32093
1 59701U 24086V   26171.36144084  .00000607  00000-0  31579-4 0  9991
2 59701  43.0023 200.1296 0001643 275.4204  84.6460 15.27578898119812
Epoch: 2026-06-20T08:40Z
TLE epoch observation values (Epoch: 2026-06-20T08:40:28.488Z)
Latitude
-0.00004°
Longitude
161.43369°
Altitude
482.723 km
Speed
7.626 km/s
True Right ascension
13h 20m 31s
True Declination
0° 00' 00"
Sunlit
Object was in daylight at epoch
Visualization orbit readout
Latitude
Unknown
Longitude
Unknown
Altitude
Unknown
Speed
Unknown
Apparent Right ascension
Unknown
Apparent Declination
Unknown
Sunlit
N/A
Visualization observer readout
Local Sidereal Time
21:28:52
Azimuth
Unknown
Elevation
Unknown
Doppler factor
Unknown
Orbital elements
Apogee altitude
486.125 km
Perigee altitude
483.87 km
Semi-major axis
6,863.134 km
Eccentricity
0.00016
Inclination
43.0023°
RAAN
200.1296°
Arg. of periapsis
275.4204°
True anomaly
84.66475°
Mean anomaly
84.646°
Eccentric anomaly
84.65537°
Mean motion
3.81733 °/min
Orbital period
94.31 mins
BSTAR
0.000031579
Loading maneuver chart data...
Computing Atmospheric mass density...
Loading historical data...
Loading historical data...
Loading historical data...
Loading historical data...
Loading historical data...
Loading historical data...
Loading historical data...

Documentation

Showing up to 5 results
|